NSZ59T ESSA-EGKK

Flight info

Callsign NSZ59T
Flight time N/A
Altitude 36000
Route ARS N623 BEDLA N866 LAPSI DCT INVOL N866 DETNA DCT ETVOK DCT KEMEG/N0443F380 DCT RERPA DCT UPGAS DCT TIPAN DCT WECOW DCT BINBO DCT AKOKO N866 BUKUT P7 BARMI
Aircraft B738/M-SDE2E3FGHIRWXY/LB1

Departure

Time 2026-05-04 16:05
Airport Stockholm-Arlanda Airport (ESSA)

Arrival

Time N/A
Airport London Gatwick Airport (EGKK)
Time Latitude Longitude Altitude Speed Heading
2026-05-04 15:22 59.65147 17.92699 110 ft 0 kts 190°
2026-05-04 15:54 59.65149 17.92700 111 ft 3 kts 190°
2026-05-04 15:54 59.65175 17.92709 111 ft 4 kts 190°
2026-05-04 15:54 59.65201 17.92719 111 ft 4 kts 190°
2026-05-04 15:55 59.65227 17.92729 111 ft 4 kts 190°
2026-05-04 15:55 59.65250 17.92738 109 ft 1 kts 190°
2026-05-04 15:58 59.65248 17.92732 108 ft 2 kts 219°
2026-05-04 15:59 59.65245 17.92690 110 ft 5 kts 279°
2026-05-04 15:59 59.65261 17.92582 110 ft 9 kts 289°
2026-05-04 15:59 59.65280 17.92472 111 ft 9 kts 289°
2026-05-04 15:59 59.65303 17.92339 106 ft 12 kts 289°
2026-05-04 16:00 59.65389 17.92285 104 ft 16 kts
2026-05-04 16:00 59.65508 17.92329 104 ft 19 kts 10°
2026-05-04 16:00 59.65644 17.92377 103 ft 21 kts 10°
2026-05-04 16:00 59.65781 17.92428 104 ft 16 kts 11°
2026-05-04 16:01 59.65892 17.92468 106 ft 16 kts 10°
2026-05-04 16:01 59.66002 17.92509 107 ft 16 kts 10°
2026-05-04 16:01 59.66111 17.92548 111 ft 16 kts 11°
2026-05-04 16:01 59.66230 17.92593 114 ft 19 kts
2026-05-04 16:02 59.66371 17.92642 119 ft 22 kts 11°
2026-05-04 16:02 59.66497 17.92632 119 ft 16 kts 341°
2026-05-04 16:02 59.66611 17.92392 119 ft 8 kts 242°
2026-05-04 16:03 59.66563 17.92349 122 ft 8 kts 191°
2026-05-04 16:03 59.66558 17.92347 122 ft 0 kts 190°
2026-05-04 16:03 59.66557 17.92347 122 ft 0 kts 190°
2026-05-04 16:03 59.66556 17.92346 122 ft 0 kts 190°
2026-05-04 16:04 59.66102 17.92181 118 ft 105 kts 191°
2026-05-04 16:04 59.65162 17.91856 319 ft 155 kts 195°
2026-05-04 16:05 59.64044 17.91567 1153 ft 171 kts 195°
2026-05-04 16:05 59.62839 17.91184 1977 ft 186 kts 196°
2026-05-04 16:05 59.60540 17.88749 2659 ft 201 kts 246°
2026-05-04 16:06 59.59921 17.86249 3196 ft 203 kts 244°
2026-05-04 16:06 59.58115 17.79586 4475 ft 216 kts 245°
2026-05-04 16:07 59.57210 17.75997 4969 ft 220 kts 245°
2026-05-04 16:07 59.56794 17.67087 4992 ft 221 kts 271°
2026-05-04 16:08 59.56869 17.64058 5099 ft 224 kts 271°
2026-05-04 16:08 59.57097 17.54253 7097 ft 243 kts 272°
2026-05-04 16:09 59.57237 17.47654 8923 ft 243 kts 271°
2026-05-04 16:09 59.57373 17.40827 10223 ft 266 kts 271°
2026-05-04 16:10 59.56387 17.33338 11174 ft 295 kts 250°
2026-05-04 16:11 59.54088 17.21943 13461 ft 300 kts 250°
2026-05-04 16:11 59.53313 17.18082 13627 ft 304 kts 250°
2026-05-04 16:12 59.50957 17.06304 15743 ft 308 kts 250°
2026-05-04 16:12 59.48568 16.94418 18102 ft 319 kts 250°
2026-05-04 16:13 59.46925 16.86261 19554 ft 323 kts 250°
2026-05-04 16:13 59.45251 16.77972 20946 ft 329 kts 250°
2026-05-04 16:14 59.43546 16.69558 22268 ft 335 kts 250°
2026-05-04 16:14 59.41803 16.60994 23494 ft 340 kts 250°
2026-05-04 16:15 59.39111 16.47827 24780 ft 354 kts 251°
2026-05-04 16:16 59.36896 16.39102 25768 ft 362 kts 244°
2026-05-04 16:16 59.33004 16.26258 27198 ft 370 kts 244°
2026-05-04 16:17 59.30358 16.17509 28000 ft 377 kts 244°
2026-05-04 16:18 59.26323 16.04106 29200 ft 385 kts 245°
2026-05-04 16:18 59.24986 15.99668 29566 ft 388 kts 245°
2026-05-04 16:19 59.20862 15.86038 30875 ft 386 kts 244°
2026-05-04 16:19 59.18101 15.76945 31273 ft 395 kts 244°
2026-05-04 16:20 59.13927 15.63280 32775 ft 387 kts 244°
2026-05-04 16:20 59.11168 15.54286 33542 ft 387 kts 243°
2026-05-04 16:21 59.07041 15.40895 34600 ft 385 kts 243°
2026-05-04 16:22 59.04266 15.31924 35002 ft 390 kts 243°
2026-05-04 16:22 59.00047 15.18364 35710 ft 394 kts 242°
2026-05-04 16:23 58.95764 15.04682 35708 ft 394 kts 242°
2026-05-04 16:25 58.87305 14.77894 35729 ft 388 kts 242°
2026-05-04 16:26 58.77352 14.46750 35736 ft 391 kts 241°
2026-05-04 16:28 58.70145 14.24457 35760 ft 394 kts 241°
2026-05-04 16:29 58.59924 13.93200 35764 ft 397 kts 241°
2026-05-04 16:31 58.53255 13.73026 35758 ft 397 kts 240°
2026-05-04 16:32 58.44359 13.46380 35775 ft 396 kts 240°
2026-05-04 16:33 58.38401 13.28702 35783 ft 396 kts 240°
2026-05-04 16:34 58.33938 13.15545 35764 ft 395 kts 240°
2026-05-04 16:35 58.24964 12.89307 35805 ft 396 kts 240°
2026-05-04 16:36 58.20430 12.76162 35812 ft 397 kts 240°
2026-05-04 16:37 58.15881 12.63043 35822 ft 397 kts 240°
2026-05-04 16:38 58.09782 12.45570 35820 ft 398 kts 239°
2026-05-04 16:39 58.02126 12.23812 35823 ft 398 kts 240°
2026-05-04 16:40 57.95983 12.06499 35858 ft 397 kts 240°
2026-05-04 16:41 57.88330 11.85106 35870 ft 396 kts 239°
2026-05-04 16:43 57.80601 11.63685 35879 ft 397 kts 239°
2026-05-04 16:43 57.75930 11.50833 35873 ft 398 kts 239°
2026-05-04 16:45 57.67481 11.27754 35861 ft 399 kts 238°
2026-05-04 16:46 57.58988 11.07318 35875 ft 402 kts 235°
2026-05-04 16:47 57.52802 10.90209 35880 ft 401 kts 239°
2026-05-04 16:48 57.46636 10.72918 35847 ft 401 kts 239°
2026-05-04 16:49 57.40433 10.55760 35902 ft 400 kts 239°
2026-05-04 16:50 57.34203 10.38648 35899 ft 401 kts 239°
2026-05-04 16:51 57.29510 10.25838 35914 ft 401 kts 239°
2026-05-04 16:52 57.23224 10.08782 35906 ft 401 kts 239°
2026-05-04 16:53 57.18524 9.96113 35939 ft 402 kts 238°
2026-05-04 16:54 57.12189 9.79131 35941 ft 403 kts 238°
2026-05-04 16:55 57.02406 9.54011 35947 ft 405 kts 234°
2026-05-04 16:56 56.93391 9.34107 35949 ft 407 kts 233°
2026-05-04 16:57 56.87973 9.22119 35955 ft 408 kts 233°
2026-05-04 16:58 56.80728 9.06165 35965 ft 408 kts 233°
2026-05-04 17:00 56.70137 8.82059 35982 ft 405 kts 240°
2026-05-04 17:01 56.62613 8.60356 35984 ft 406 kts 240°
2026-05-04 17:02 56.56496 8.43106 35969 ft 407 kts 239°
2026-05-04 17:03 56.51885 8.30191 35979 ft 407 kts 239°
2026-05-04 17:03 56.47255 8.17293 35985 ft 408 kts 239°
2026-05-04 17:04 56.41009 8.00130 35990 ft 409 kts 239°
2026-05-04 17:05 56.35045 7.83850 35991 ft 410 kts 239°
2026-05-04 17:06 56.30745 7.72172 35987 ft 410 kts 238°
2026-05-04 17:07 56.26769 7.61421 36001 ft 411 kts 238°
2026-05-04 17:07 56.23081 7.51492 35998 ft 411 kts 238°
2026-05-04 17:08 56.18305 7.38693 36005 ft 412 kts 238°
2026-05-04 17:09 56.15110 7.30169 36002 ft 412 kts 238°
2026-05-04 17:09 56.11903 7.21644 36000 ft 412 kts 238°
2026-05-04 17:10 56.03870 7.00416 36007 ft 412 kts 237°
2026-05-04 17:11 56.00699 6.92087 36005 ft 413 kts 237°
2026-05-04 17:12 55.95845 6.79393 36004 ft 413 kts 237°
2026-05-04 17:13 55.87708 6.58260 36009 ft 414 kts 237°
2026-05-04 17:14 55.81199 6.41485 36016 ft 415 kts 237°
2026-05-04 17:15 55.76289 6.28907 36018 ft 414 kts 237°